Home > Time Zones > World Clock > Weather > Spain > Palma > Past weeks

Flag for Spain Weather past 2 weeks in Palma, Majorca, Spain

Now
54 °F

Clear.


Feels Like: 54 °F
Forecast: 54 / 79 °F
Wind: 1 mph from North

Location: Palma De Mallorca / Son San Juan

Current Time: Oct 25, 2014 at 3:22:52 AM

Latest Report: Oct 25, 2014 at 3:00 AM


Visibility: 10 mi

Pressure: 30.04 "Hg

Humidity: 82%

Dew point: 48 °F

Location of PalmaLocation

Historic Weather in Palma — Graph

°F

Palma temperature yesterday

Maximum temperature yesterday: 79 °F (at 4:00 PM)
Minimum temperature yesterday: 48 °F (at 7:30 AM)
Average temperature yesterday: 64 °F

Past Weeks' High & Low Weather Summary

 TemperatureHumidityPressure
High90 °F (Oct 19, 1:00 PM)100% (Oct 10, 2:00 AM)30.24 "Hg (Oct 10, 2:00 AM)
Low48 °F (Oct 24, 7:30 AM)26% (Oct 23, 4:30 PM)29.74 "Hg (Oct 14, 4:00 PM)
Average70 °F75%30.01 "Hg
* Reported Oct 10 2:00 AM — Oct 25 2:00 AM, Palma, Weather by CustomWeather, © 2014

Note: Actual official high and low records may vary slightly from our data, if they occured in-between our weather recording intervals... More about our weather records

Advertising

Palma weather history for previous 24 hours

 ConditionsComfort  
Time TempWeatherWind HumidityBarometerVisibility
2:00 AM
Oct 25
54 °FClear.No wind88%30.04 "Hg10 mi
1:30 AM55 °FClear.No wind88%30.07 "Hg10 mi
1:00 AM55 °FClear.2 mph88%30.07 "Hg10 mi
12:30 AM57 °FClear.2 mph88%30.07 "Hg10 mi
12:00 AM57 °FClear.2 mph88%30.07 "Hg10 mi
11:30 PM
Oct 24
57 °FClear.No wind94%30.07 "Hg10 mi
11:00 PM59 °FClear.No wind88%30.07 "Hg10 mi
10:30 PM59 °FClear.No wind88%30.04 "Hg10 mi
10:00 PM63 °FClear.No wind83%30.04 "Hg10 mi
9:30 PM63 °FClear.No wind83%30.04 "Hg10 mi
9:00 PM66 °FClear.3 mph68%30.04 "Hg10 mi
8:30 PM70 °FClear.5 mph60%30.04 "Hg10 mi
8:00 PM72 °FClear.7 mph61%30.01 "Hg10 mi
7:30 PM73 °FSunny.6 mph61%30.01 "Hg10 mi
7:00 PM73 °FSunny.7 mph61%30.01 "Hg10 mi
6:30 PM75 °FPassing clouds.9 mph61%30.01 "HgN/A
6:00 PM75 °FPassing clouds.12 mph69%30.01 "HgN/A
5:30 PM75 °FPassing clouds.13 mph61%30.01 "HgN/A
5:00 PM77 °FPassing clouds.13 mph57%30.01 "HgN/A
4:30 PM77 °FSunny.13 mph57%30.01 "Hg10 mi
4:00 PM79 °FSunny.14 mph51%30.01 "Hg10 mi
3:30 PM77 °FPassing clouds.13 mph51%30.01 "HgN/A
3:00 PM77 °FPassing clouds.12 mph54%30.01 "HgN/A
2:30 PM77 °FPassing clouds.12 mph57%30.01 "HgN/A
2:00 PM77 °FPassing clouds.10 mph57%30.04 "HgN/A
1:30 PM77 °FPassing clouds.9 mph54%30.04 "HgN/A
1:00 PM75 °FPassing clouds.7 mph69%30.04 "HgN/A
12:30 PM75 °FPassing clouds.6 mph69%30.04 "HgN/A
12:00 PM73 °FPassing clouds.6 mph65%30.04 "HgN/A
11:30 AM73 °FSunny.1 mph47%30.04 "Hg10 mi
11:00 AM72 °FSunny.No wind53%30.04 "Hg10 mi
10:30 AM66 °FSunny.No wind68%30.04 "Hg10 mi
10:00 AM63 °FSunny.No wind64%30.04 "Hg10 mi
9:30 AM57 °FSunny.No wind67%30.04 "Hg10 mi
9:00 AM54 °FClear.No wind72%30.04 "Hg10 mi
8:30 AM50 °FClear.No wind82%30.01 "Hg10 mi
8:00 AM48 °FClear.1 mph87%30.01 "Hg10 mi
7:30 AM48 °FClear.2 mph94%30.01 "Hg10 mi
7:00 AM50 °FClear.1 mph88%30.01 "Hg10 mi
6:30 AM50 °FClear.1 mph88%30.01 "Hg10 mi
6:00 AM50 °FClear.No wind88%30.01 "Hg10 mi
5:30 AM50 °FClear.No wind94%30.01 "Hg10 mi
4:30 AM50 °FClear.No wind88%30.01 "Hg10 mi
4:00 AM52 °FClear.1 mph88%30.01 "Hg10 mi
3:30 AM54 °FClear.No wind82%30.01 "Hg10 mi
3:00 AM54 °FClear.2 mph77%30.01 "Hg10 mi
Weather by CustomWeather, © 2014

See weather overviewHow to use our weather pages